www.pogodaiklimat.ru

Погода и климат >> Архив погоды >> Россия >> Краснодарский край >> Краснодар


АРХИВ ПОГОДЫ в Краснодаре

Время (UTC), дата Ветер
(напр.,м/с)
 
Видим.   Явления Облачность Т
(С)
Тd
(С)
f
(%)
Тe
(С)
Тes
(С)
Комфортность P
(гПа)
Po
(гПа)
Тmin
(С)
Tmax
(С)
R
(мм)
R24
(мм)
S
(см)
09 17.04 СЗ 2 10 км 10/10 200 м
[Cb cap]
+11.4 +9.9 90 +10 +10 прохладно 1011.6 1007.4
12 17.04 С 5 4000 м {морось} 10/10 300 м
[Cb cap]
+11.9 +10.0 88 +9 +9 очень
холодно
1012.2 1008.0
15 17.04 С 7-11
{13}
4000 м слаб. дождь 10/10 300 м
[Sc diur, vesp As op]
+7.4 +5.4 87 +3 +3 очень
холодно
1015.1 1010.8 +12.7 0.4
18 17.04 СВ 7 10 км {дождь} 10/10 300 м
[St]
+6.0 +3.6 85 +1 +1 очень
холодно
1017.9 1013.6
21 17.04 С 5 4000 м слаб. морось 10/10 300 м
[St]
+4.7 +3.4 91 -0 -0 очень
холодно
1019.0 1014.7
00 18.04 СВ 6 10 км {морось} 10/10 300 м
[St]
+4.6 +2.8 88 -1 -1 очень
холодно
1018.9 1014.6
03 18.04 СВ 6 4000 м слаб. ливневой дождь 10/10 300 м
[Cb cap]
+3.1 +1.1 87 -3 -3 очень
холодно
1019.8 1015.4 +3.1 0.7
06 18.04 СВ 5 10 км в посл. час ливневой дождь 10/10 600 м
[Cb cap]
+2.7 +1.1 89 -3 -3 очень
холодно
1021.1 1016.7 +2.6
09 18.04 СВ 6 10 км в посл. час ливневой дождь 10/10 300 м
[Cb cap]
+4.2 +2.1 86 -1 -1 очень
холодно
1021.9 1017.6
12 18.04 СВ 7 10 км {ливн. осадки} 10/10 600 м
[Sc diur, vesp]
+6.7 +1.8 71 +2 +2 очень
холодно
1021.6 1017.3
15 18.04 СВ 6 10 км слаб. дождь 10/10 600 м
[Sc]
+6.6 +2.4 75 +2 +2 очень
холодно
1021.3 1017.0 +7.1 2
18 18.04 В 3 10 км в посл. час дождь 10/10 1000 м
[Sc]
+6.2 +2.5 77 +3 +3 очень
холодно
1021.9 1017.6
21 18.04 В 5 4000 м слаб. ливневой дождь 10/10 600 м
[Cb cap]
+4.8 +1.6 80 0 0 очень
холодно
1021.3 1017.0
00 19.04 СВ 6 10 км слаб. ливневой дождь 10/10 1000 м
[Cb cap]
+4.9 0.0 71 0 0 очень
холодно
1019.7 1015.4
03 19.04 СВ 5 4000 м слаб. ливневой дождь 10/10 1000 м
[Cb cap]
+3.9 +0.8 80 -1 -1 очень
холодно
1019.0 1014.7 +3.9 3
06 19.04 СВ 6 4000 м слаб. ливневой дождь 10/10 1000 м
[Cb cap]
+3.8 +1.5 85 -2 -2 очень
холодно
1019.1 1014.8 +3.6
09 19.04 СВ 7 10 км в посл. час дождь {ливн. осадки} 10/10 600 м
[Cb cap]
+6.0 +1.6 73 +1 +1 очень
холодно
1019.0 1014.7
12 19.04 В 8-11
{13}
10 км {ливн. осадки} 10/10 600 м
[Cb cap]
+9.1 +2.0 61 +5 +5 очень
холодно
1018.3 1014.0
15 19.04 СВ 6 10 км 10/10 600 м
[Cb cap]
+8.1 +2.1 66 +4 +4 очень
холодно
1018.6 1014.3 +9.3 3
18 19.04 СВ 6 10 км 6/3 600 м
[Cb cap Ac trans]
+7.5 +1.4 65 +4 +4 очень
холодно
1019.6 1015.3
21 19.04 С 3 10 км 10/0
[Cs]
+4.1 -1.5 67 +1 +1 очень
холодно
1019.3 1015.0
00 20.04 СВ 4 10 км 10/10 600 м
[Sc]
+3.9 -2.4 63 -0 -0 очень
холодно
1019.1 1014.8
03 20.04 СВ 4 10 км 10/10 600 м
[Sc]
+4.0 -1.6 67 -0 -0 очень
холодно
1019.0 1014.7 +3.5
06 20.04 СВ 8-11
{13}
10 км 8/6 1000 м
[Sc diur, vesp Ac trans Ci fib]
+8.2 0.0 56 +4 +4 холодно 1019.9 1015.6
09 20.04 В 9-13
{13}
10 км 9/4 1000 м
[Sc Ac trans Ci fib]
+10.8 +0.6 49 +7 +8 холодно 1020.4 1016.2
12 20.04 В 8-12
{13}
10 км 10/6 1000 м
[Sc Ac As Ci fib]
+11.7 +0.4 46 +9 +9 очень
холодно
1020.4 1016.2
15 20.04 СВ 6
{12}
10 км 10/4 1000 м
[Sc Ac As Ci fib]
+10.2 0.0 49 +7 +7 очень
холодно
1020.6 1016.4 +12.2
18 20.04 СВ 4 10 км 5/0
[Ac trans]
+7.5 -0.4 57 +5 +5 очень
холодно
1021.0 1016.7
21 20.04 СВ 4 10 км 4/0
[Ac trans Ci fib]
+5.7 -0.3 65 +2 +2 очень
холодно
1020.3 1016.0
00 21.04 С 5 10 км 3/0
[Ci fib]
+4.2 -0.9 69 -0 -0 очень
холодно
1019.2 1014.9
03 21.04 СВ 5 10 км 3/0
[Ac trans]
+3.9 -0.8 71 -1 -1 очень
холодно
1018.7 1014.4 +3.7
06 21.04 СВ 10-15
{15}
10 км 3/0
[Ac trans]
+9.4 -0.3 51 +5 +5 холодно 1019.1 1014.8
09 21.04 СВ 11-15
{17}
10 км 6/3 1000 м
[Cu med, cong Ac trans]
+12.8 -0.1 41 +10 +10 прохладно 1019.2 1015.0
12 21.04 В 9-13
{15}
10 км 8/0
[Ac cast Ci fib]
+14.0 +0.5 40 +12 +12 прохладно 1019.0 1014.8
15 21.04 В 6-10
{12}
10 км 10/0
[Ac As]
+11.8 -0.6 42 +9 +10 холодно 1019.2 1015.0 +14.3
18 21.04 СВ 4 10 км 4/0
[Ac trans]
+8.5 -0.5 53 +6 +6 холодно 1019.6 1015.3
21 21.04 СВ 4 10 км 3/0
[Ac trans]
+7.6 +0.3 60 +5 +5 холодно 1019.6 1015.3
00 22.04 СВ 4 10 км ясно +6.9 +0.8 65 +4 +4 прохладно 1019.5 1015.2
03 22.04 СВ 5 10 км 3/0
[Ac trans]
+5.2 +0.4 71 +1 +1 очень
холодно
1019.6 1015.3 +4.9
06 22.04 СВ 7
{12}
10 км 4/0
[Ac trans Ci]
+9.7 +1.5 57 +6 +8 холодно 1020.5 1016.2
09 22.04 СВ 8-12
{13}
10 км 6/5 600 м
[Sc Ac trans]
+14.0 +1.6 43 +12 +13 по сезону 1020.4 1016.2
12 22.04 СВ 9-12
{14}
10 км 10/10 1000 м
[Sc]
+13.9 +1.2 42 +11 +11 холодно 1020.4 1016.2
15 22.04 СВ 6
{13}
10 км 10/10 1000 м
[Sc]
+13.3 +0.4 41 +11 +11 прохладно 1020.9 1016.7 +15.6
18 22.04 СВ 4 10 км 5/5 1000 м
[Sc]
+11.1 +0.5 48 +9 +9 прохладно 1022.2 1018.0
21 22.04 С 4 10 км 3/3 1000 м
[Sc Ac trans]
+8.0 +0.3 58 +5 +5 холодно 1023.2 1018.9
00 23.04 СВ 3 10 км 3/0
[Ci fib]
+6.2 0.0 64 +3 +3 холодно 1023.7 1019.4
03 23.04 Ю 1 10 км 5/0
[Ci fib]
+4.0 -0.1 75 +3 +3 холодно 1025.2 1020.8 +3.6
06 23.04 СВ 4 10 км 5/0
[Ci fib]
+11.2 +2.7 56 +9 +14 по сезону 1026.4 1022.1
09 23.04 В 6 10 км 3/0
[Ac As Ci fib]
+15.7 +1.1 37 +14 +20 по сезону 1027.0 1022.8
12 23.04 В 3 10 км 5/0
[Ac cast]
+17.7 -2.3 25 +18 +24 тепло 1027.1 1022.9
15 23.04 В 1 10 км 3/0
[Ac As]
+17.4 +0.2 31 +18 +20 тепло 1027.1 1022.9 +18.8
18 23.04 З 2 10 км 1/0
[Ac As]
+12.0 +2.3 51 +11 +11 по сезону 1028.2 1023.9
21 23.04 З 1 10 км ясно +7.1 +3.4 77 +6 +6 прохладно 1028.6 1024.3
00 24.04 З 2 10 км ясно +8.1 +5.1 81 +6 +6 по сезону 1029.0 1024.7
03 24.04 ЮЗ 1 4000 м дымка ясно +5.9 +4.7 92 +5 +5 прохладно 1029.7 1025.3 +5.3
06 24.04 З 2 10 км 1/0
[Ac trans]
+13.0 +5.2 59 +12 +20 по сезону 1029.8 1025.6

 

Местоположение метеостанции Краснодар (Краснодарский край, Россия): широта 45.05 долгота 39.03 высота над уровнем моря 29 м.

В архиве по умолчанию представлена погода в Краснодаре за последнюю неделю. Архивные данные за месяц целиком и за предыдущие месяцы, начиная с января 2011 года, Вы можете получить, выбрав интересующий диапазон дат из раскрывающегося списка и нажав кнопку "Ввод!".


*Определитесь, кто Вы:
робот инопланетянин человек

Внимание! Время в таблицах - всемирное. Для получения местного времени необходимо прибавить поправку, которая равна 3 ч.

Смотрите также архив погоды в соседних городах и на ближайших метеорологических станциях:

Погода в Горячем Ключе (Краснодарский край, Россия) (47 км)
Погода в Усть-Лабинске (Краснодарский край, Россия) (58 км)
Погода в Кореновске (Краснодарский край, Россия) (59 км)
Погода в Тимашевске (Краснодарский край, Россия) (65 км)
Погода в Славянске-на-Кубани (Краснодарский край, Россия) (76 км)
Погода в Белореченске (Краснодарский край, Россия) (76 км)
Погода в Крымске (Краснодарский край, Россия) (82 км)
Погода в Джубге (Краснодарский край, Россия) (84 км)
Погода в Горном (Краснодарский край, Россия) (88 км)
Погода в Геленджике (Краснодарский край, Россия) (92 км)

Пояснения к столбцам:

Ветер - указаны скорость ветра в м/с - средняя за 10 мин, порывы в срок и между сроками (в фигурных скобках) и направление, откуда дует ветер: С - северный, СВ - северо-восточный, В - восточный, ЮВ - юго-восточный, Ю - южный, ЮЗ - юго-западный, З - западный, СЗ - северо-западный.
Видимость - горизонтальная дальность видимости в метрах или километрах. При видимости от 1 до 10 км при отсутствии осадков обычно наблюдается дымка, при ухудшении видимости до 1 км и менее - туман. В сухую погоду видимость может ухудшаться дымом, пылью или мглою.
Явления - указаны атмосферные явления, наблюдавшиеся в срок или в последний час перед сроком; фигурными скобками обозначены явления, наблюдавшиеся между сроками (за 1-3 часа до срока); квадратными скобками обозначены град или гололедные отложения с указанием их диаметра в мм.
Облачность - указаны через наклонную черту общая и нижняя облачность в баллах и высота нижней границы облаков в метрах; квадратными скобками обозначены формы облаков: Ci - перистые, Cs - перисто-слоистые, Cc - перисто-кучевые, Ac - высококучевые, As - высокослоистые, Sc - слоисто-кучевые, Ns - слоисто-дождевые, Cu - кучевые, Cb - кучево-дождевые. Подробнее классификацию облаков см. в Атласе облаков (PDF).
T - Температура воздуха - температура, измеренная на высоте 2 м над землей.
Td - Температура точки росы - температура, при понижении до которой содержащийся в воздухе водяной пар достигнет насыщения.
f - Относительная влажность воздуха - влажноcть воздуха, измеренная на высоте 2 м над землей.
Te - Эффективная температура - температура, которую ощущает одетый по сезону человек в тени. Характеристика душности погоды. При расчете учитывается влияние влажности воздуха и скорости ветра на теплоощущения человека.
Tes - Эффективная температура на солнце - температура, которую ощущает человек, с поправкой на солнечный нагрев. Характеристика знойности погоды. Зависит от высоты солнца над горизонтом, облачности и скорости ветра. Ночью, в пасмурную погоду, а также при ветре 12 м/с и более поправка равна нулю.
P - Атмосферное давление - приведенное к уровню моря атмосферное давление.
Po - Атмосферное давление - измеренное на уровне метеостанции атмосферное давление.
Tmin - Минимальная температура - минимум температуры воздуха на высоте 2 м над землей.
Tmax - Максимальная температура - максимум температуры воздуха на высоте 2 м над землей.
R - Количество осадков - Количество выпавших осадков за период времени, мм. При наведении курсора мыши на число - период времени, за который выпало указанное количество осадков.
R24 - Количество осадков - Количество выпавших осадков за 24 часа, мм.
S - Снежный покров - Высота снежного покрова, см. При наведении курсора мыши на число - состояние снежного покрова и степень покрытия местности в баллах.